Wind_Speed
39 41 39 37 35 31 30 27 27 25 23 17 11 10 8 9 7 8 11 8 7 8 6 6 6 4 4 1 4 7 7 12 9 9 17 12 10 10 11 14 12 12 11
38 35 37 37 33 32 31 29 25 24 20 17 15 15 13 10 10 9 12 7 4 4 4 5 7 5 1 4 6 7 10 15 24 16 17 12 12 12 13 13 12 12 12
35 34 33 33 33 32 32 30 27 25 27 24 22 20 17 14 13 11 11 3 2 1 2 5 7 2 4 6 7 11 12 19 23 21 15 15 14 12 11 10 10 11 10
30 33 33 33 33 33 30 28 25 25 25 26 26 23 19 17 16 14 8 5 4 3 2 3 4 3 4 7 9 12 16 20 21 23 20 15 15 11 10 12 9 9 9
27 30 33 33 33 31 30 28 26 24 25 25 24 22 19 18 17 19 9 8 7 7 3 1 3 3 5 8 12 16 20 22 21 21 15 12 11 15 13 9 7 7 8
15 25 28 27 28 31 32 31 30 29 26 25 25 23 21 20 19 17 12 11 9 7 5 2 2 4 5 8 11 17 19 21 22 17 12 15 13 14 13 13 11 6 2
29 25 13 16 24 30 32 31 33 33 31 29 26 23 25 23 24 17 15 14 12 8 5 2 1 5 8 12 17 17 16 13 14 17 18 19 17 18 15 16 15 12 3
28 26 29 30 25 22 29 35 36 34 34 33 31 30 29 27 25 19 17 16 13 10 8 5 3 7 12 19 19 18 17 13 12 13 14 16 15 17 16 16 14 9 1
28 27 31 31 27 27 22 33 37 32 33 32 33 32 32 27 22 18 19 17 15 12 9 8 6 8 14 17 19 19 12 10 11 11 12 12 12 16 15 15 16 10 3
26 28 28 31 29 26 27 24 34 31 32 34 33 35 33 30 25 20 20 19 15 13 9 11 10 11 13 14 18 16 14 10 11 10 12 16 13 15 16 15 17 17 7
21 24 27 31 30 28 31 28 22 26 28 28 26 32 35 31 25 20 20 18 17 14 11 13 13 16 16 12 16 17 13 12 12 14 15 15 15 15 15 12 14 14 9
19 22 23 27 31 30 28 24 16 4 15 25 8 7 8 25 14 10 11 11 15 16 13 12 13 17 17 12 16 15 11 13 13 17 18 17 17 17 14 9 15 8 6
19 19 20 23 28 23 21 14 4 13 16 14 20 26 29 27 21 4 4 6 10 19 14 12 12 15 16 15 15 16 14 16 16 17 17 17 17 17 17 12 10 9 6
21 18 16 19 24 21 16 10 3 14 15 18 19 18 32 34 25 19 17 14 13 18 16 15 13 14 16 15 13 18 16 18 18 17 16 12 11 15 20 16 13 11 7
24 23 18 19 19 19 16 14 13 18 18 19 20 30 28 33 43 40 34 29 27 26 21 18 18 16 15 14 16 17 17 18 16 16 17 18 17 16 17 16 15 14 9
26 28 22 19 17 18 16 15 15 19 22 27 28 30 29 25 35 36 33 28 27 26 26 27 23 20 17 15 16 17 15 14 15 14 18 23 26 24 20 19 18 18 16
24 27 28 20 15 15 17 17 15 17 14 16 23 23 25 33 28 30 25 25 21 22 21 22 23 21 19 17 16 16 15 10 11 9 11 16 22 26 22 20 20 17 16
22 24 21 19 17 15 16 21 18 16 13 9 10 20 22 27 26 27 27 27 26 23 21 22 23 18 19 18 17 16 14 11 10 10 9 11 16 22 20 21 21 18 15
20 18 17 15 20 19 16 22 19 16 12 12 9 12 16 23 25 24 25 19 19 21 24 25 23 20 18 16 16 13 12 11 11 10 9 8 8 11 10 8 14 18 14
24 22 17 16 18 22 16 18 18 21 18 19 16 20 21 21 22 21 22 19 20 21 19 22 20 18 18 14 12 12 11 10 9 9 9 7 5 5 8 7 6 5 5
23 22 20 16 14 20 19 21 20 22 20 18 21 19 19 17 20 22 21 20 25 21 19 23 22 21 18 15 12 11 10 11 9 8 7 7 6 2 2 3 5 6 7
19 17 15 16 16 22 20 21 20 21 21 21 19 16 16 12 12 15 15 17 16 17 25 27 23 20 18 16 16 15 12 11 9 9 7 6 5 4 3 1 1 3 5
18 15 17 19 22 20 20 21 20 19 20 22 22 21 18 11 16 18 20 18 21 24 26 23 21 19 18 17 15 15 14 12 11 8 6 7 7 5 4 2 1 2 3
12 12 13 15 17 19 20 20 20 24 24 22 22 25 21 22 26 25 23 22 23 23 20 18 18 18 16 15 13 12 9 7 7 8 7 7 7 7 5 4 4 3 3
8 8 10 13 15 18 21 23 23 22 23 25 26 26 26 27 26 23 21 17 16 17 16 15 14 13 12 12 11 9 7 5 5 6 6 5 4 3 2 1 2 3 5
3 5 8 9 10 14 21 22 24 28 27 29 30 29 29 29 26 25 22 20 20 17 15 12 13 12 12 10 9 7 8 9 9 7 6 7 7 4 2 1 1 3 5
Wind_Direction
220 224 225 230 232 234 235 240 241 246 251 256 222 234 246 285 281 282 291 317 328 335 347 336 351 334 336 226 145 150 114 126 123 115 135 131 113 111 107 100 108 114 122
225 224 227 230 231 233 234 236 239 240 240 242 250 263 279 277 273 267 282 285 342 351 346 340 331 318 283 170 149 144 127 141 133 131 140 138 126 121 100 106 111 116 126
224 223 228 231 232 234 234 236 237 239 240 246 254 259 265 261 261 261 268 262 255 291 321 356 353 337 197 168 157 145 137 147 146 145 144 148 140 135 127 108 119 123 124
224 222 223 230 235 236 236 235 235 239 243 244 249 253 247 251 250 251 247 214 189 196 211 348 18 99 177 162 158 154 149 147 148 144 146 152 151 145 145 146 131 137 131
227 226 228 232 233 237 238 239 238 235 239 243 246 246 244 245 250 243 230 196 193 179 192 68 76 122 150 161 163 157 152 149 154 150 148 160 163 157 159 164 156 146 131
244 235 240 242 242 238 241 242 241 239 234 238 241 243 242 242 248 238 221 201 201 197 190 141 111 153 140 151 157 160 160 159 162 159 163 170 180 180 172 174 173 169 144
32 32 353 280 254 247 246 246 245 243 240 235 236 235 232 238 246 226 214 202 186 190 190 192 240 171 164 154 150 157 158 164 180 181 181 188 183 188 175 175 184 187 197
17 10 8 359 350 297 256 247 248 246 244 240 236 231 235 234 234 206 199 191 183 171 175 202 221 175 161 157 157 160 171 180 197 207 212 194 194 186 193 188 186 190 227
10 3 358 357 346 335 293 256 249 238 240 237 240 232 227 224 206 201 193 188 184 181 187 190 199 173 164 168 166 167 175 188 199 219 219 204 194 190 194 186 182 178 132
1 354 352 350 347 336 334 292 259 243 240 239 236 236 228 221 199 195 193 185 183 187 186 184 202 195 177 185 183 175 174 176 176 172 163 178 189 189 189 202 185 178 151
345 344 344 346 346 336 331 325 300 267 260 265 248 229 216 202 185 185 193 188 190 193 190 185 192 193 182 205 209 197 188 170 170 162 164 170 175 180 184 195 193 186 194
331 330 331 339 341 338 335 330 319 325 82 73 67 34 30 133 110 160 177 203 201 210 203 198 201 201 196 198 212 207 203 183 173 169 166 171 176 183 186 183 189 208 217
312 316 316 330 334 336 331 341 12 129 131 116 107 111 62 336 45 329 213 181 212 213 212 204 200 202 211 199 213 205 195 191 186 181 185 196 201 197 189 184 181 206 231
302 301 302 318 323 328 311 297 293 155 169 157 156 136 139 157 235 236 226 206 192 198 198 191 201 198 204 201 210 199 196 196 194 199 197 197 193 193 197 202 199 191 193
294 297 287 299 307 313 296 289 272 244 229 208 200 177 177 187 200 212 202 198 187 183 183 181 184 186 199 208 206 201 197 193 209 225 236 223 215 207 206 207 207 197 204
296 294 278 281 285 294 287 272 281 265 246 247 234 219 213 231 195 194 196 192 186 180 178 177 180 188 197 201 201 184 195 220 235 231 242 226 217 215 217 211 211 205 205
293 288 285 267 271 272 265 253 260 277 258 253 238 243 217 200 195 189 181 175 174 167 175 185 186 188 192 190 195 191 187 193 196 180 195 197 203 205 212 215 214 220 215
293 290 279 260 268 259 255 250 243 241 239 224 219 209 210 210 199 193 185 186 173 176 184 192 195 187 189 191 199 201 193 187 179 170 155 158 189 202 208 218 223 224 230
283 276 268 263 265 264 241 241 230 222 225 205 194 177 177 190 184 189 186 185 182 179 189 193 191 190 197 196 199 198 197 189 188 179 175 176 165 160 162 172 213 220 227
274 269 258 251 251 268 238 215 195 202 200 194 171 165 164 168 169 178 188 192 185 178 187 185 178 182 198 197 193 197 180 175 180 180 184 200 213 216 206 194 188 195 204
263 256 253 245 231 252 248 221 198 192 186 183 186 185 187 186 193 195 190 186 184 182 190 187 181 182 181 193 187 187 179 162 160 153 148 147 157 164 261 247 249 247 258
250 252 242 225 239 252 237 229 204 192 185 182 186 185 186 193 199 194 194 192 203 194 188 179 175 172 174 188 195 197 189 168 159 155 155 153 146 149 159 192 59 330 313
242 242 246 246 247 244 212 206 199 184 176 179 188 178 175 176 166 156 150 155 160 162 164 168 169 168 172 184 196 196 192 196 205 196 190 222 224 208 199 192 350 331 311
236 245 246 250 250 224 195 177 175 173 177 169 161 164 166 161 155 145 144 140 139 143 151 159 166 167 165 174 174 171 178 190 211 217 210 204 210 212 218 223 238 251 283
227 245 247 243 230 189 169 158 155 154 154 152 155 156 155 149 145 145 148 143 140 143 146 164 167 165 172 176 169 165 168 187 196 184 170 170 174 170 160 240 282 295 296
169 186 182 169 154 147 140 135 134 139 137 137 138 141 144 143 140 140 143 147 146 139 147 157 156 157 164 172 173 168 162 146 140 137 139 134 135 141 132 117 9 351 349
Height
763 765 768 771 775 779 782 785 787 790 792 794 795 796 798 798 797 796 796 794 792 792 790 788 785 782 780 778 779 780 781 781 786 793 795 797 798 798 797 795 796 797 800
758 763 764 767 770 773 776 778 782 785 788 789 791 793 793 794 793 793 793 792 790 789 788 787 785 782 780 780 781 781 782 783 784 792 797 799 800 801 801 800 800 801 803
755 758 762 764 766 767 769 773 777 780 783 785 786 787 788 788 788 789 789 788 787 787 786 784 783 781 781 782 782 781 783 784 787 790 796 799 801 803 803 805 804 805 806
754 755 756 759 762 765 766 768 771 775 778 779 779 781 782 782 784 784 784 784 783 783 784 783 781 780 780 781 783 784 784 786 789 792 796 800 801 804 805 806 808 807 808
751 754 754 754 757 762 763 764 766 768 770 772 773 776 778 780 782 781 782 781 782 783 782 781 782 781 780 781 782 785 786 787 790 794 797 801 803 803 806 808 810 809 809
752 753 754 756 758 758 759 760 762 763 764 766 768 772 775 776 778 778 780 780 781 782 784 782 780 781 782 781 782 785 788 788 791 794 797 799 802 803 805 807 810 811 810
759 760 759 759 755 754 755 757 757 758 760 760 763 767 768 770 773 774 776 777 778 782 784 784 783 780 781 782 784 786 789 791 792 793 795 798 801 802 803 806 809 810 809
763 761 760 756 756 755 754 750 752 753 754 755 756 758 762 764 767 769 771 774 778 777 779 782 783 783 782 782 784 787 789 791 792 793 794 797 800 801 803 804 806 809 810
764 762 760 760 757 753 749 747 745 745 746 748 750 753 755 761 766 770 774 776 777 777 778 781 783 784 785 786 784 787 789 789 790 792 793 796 800 802 803 805 807 808 811
766 764 762 759 756 752 748 744 740 740 740 740 745 747 753 755 760 764 771 771 776 779 780 779 783 784 788 790 789 788 789 789 789 790 793 795 799 802 803 804 806 808 809
765 764 761 758 754 750 745 740 736 736 735 740 741 741 740 747 754 760 767 765 771 778 777 779 782 784 785 790 792 790 790 790 790 789 794 796 799 802 804 804 806 808 808
761 760 758 756 752 748 743 738 733 732 739 743 741 750 743 721 750 766 762 768 769 777 777 779 781 786 785 787 791 791 792 792 791 790 792 797 798 801 804 804 805 807 809
757 756 754 752 749 746 743 740 736 733 735 740 740 743 738 746 735 770 768 763 765 774 776 776 780 784 787 785 789 790 790 793 794 792 791 795 797 800 804 805 804 806 807
753 750 750 748 744 742 741 740 738 735 732 733 730 729 723 724 756 766 763 761 760 768 771 772 779 780 785 783 788 789 788 792 793 793 791 793 796 799 801 803 803 804 806
748 747 745 743 739 736 736 734 732 733 731 732 727 721 717 717 718 737 740 748 748 753 763 766 774 777 782 783 784 786 787 788 791 792 792 791 794 797 800 802 802 803 804
741 739 738 737 734 731 731 730 726 724 723 722 726 725 724 726 723 726 733 737 746 745 751 756 765 772 776 781 783 783 785 786 787 787 787 786 788 793 796 800 801 801 802
733 733 731 730 728 726 726 725 723 718 715 715 716 719 721 726 729 732 734 742 747 744 749 757 762 766 771 775 781 781 780 783 784 784 785 785 786 789 793 796 798 800 800
725 724 723 724 722 720 721 719 719 718 714 714 712 714 720 724 727 733 736 740 743 741 746 754 762 764 767 772 778 779 779 781 783 782 784 784 785 788 790 792 795 796 797
718 716 716 717 718 713 715 714 713 716 716 715 714 717 721 723 728 734 738 739 741 739 744 752 756 761 768 770 773 776 777 778 781 781 784 785 786 787 790 790 791 793 795
711 710 709 709 710 707 707 711 709 711 713 715 717 718 721 726 726 730 734 737 741 744 750 753 755 760 766 770 772 776 775 776 779 778 780 783 784 787 788 788 790 791 793
703 702 701 702 702 702 700 703 705 706 709 712 714 717 720 720 723 728 732 733 737 739 746 752 756 760 762 768 772 777 777 774 776 778 779 779 782 785 790 789 789 789 790
696 695 696 697 697 696 695 697 699 702 704 708 712 716 719 722 727 730 733 733 733 736 743 749 756 759 760 767 771 776 778 777 777 778 780 781 781 783 786 790 788 789 791
689 689 689 690 691 690 690 691 693 698 702 706 710 714 719 722 725 726 732 734 733 738 744 750 754 759 761 767 772 772 774 776 779 779 778 780 780 782 783 786 788 789 789
683 683 683 684 684 684 686 688 692 695 699 704 709 715 718 721 723 728 736 739 738 741 746 751 757 760 764 770 770 771 773 776 778 777 776 778 780 782 783 784 786 785 786
678 678 679 679 679 679 681 685 690 695 700 706 712 715 719 722 726 733 738 738 744 747 749 756 758 761 767 770 770 771 773 776 777 777 774 777 779 781 782 785 785 784 785
677 678 678 678 679 680 681 686 690 696 702 707 712 718 723 726 729 731 736 743 746 747 755 762 763 764 767 772 773 771 774 775 777 778 777 775 777 781 780 782 783 784 783